Location: Street
(51.1247°N, 2.7429°W)
Time: 03:56:30
(UTC+00:00)

Transit 2A Rocket - Pass Details

Date: 02 December 2020
Orbit: 592 x 911 km, 66.7° (Epoch: 16 January)

Event Time Altitude Azimuth Distance (km) Brightness Sun altitude
Exits shadow 04:55:30 16° 360° (N) 1,932 7.0 -27.0°
Drops below altitude 10° 04:57:44 10° 25° (NNE) 2,276 7.7 -26.7°
Sets 05:00:52 0° 46° (NE) 3,132 8.8 -26.2°
